TimeCDT,TemperatureF,Dew PointF,Humidity,Sea Level PressureIn,VisibilityMPH,Wind Direction,Wind SpeedMPH,Gust SpeedMPH,PrecipitationIn,Events,Conditions,WindDirDegrees,DateUTC
12:54 AM,46.9,24.1,41,29.94,10.0,SSW,19.6,-,N/A,,Clear,200,2012-10-11 05:54:00
1:54 AM,48.9,26.1,41,29.91,10.0,SSW,20.7,29.9,N/A,,Clear,200,2012-10-11 06:54:00
2:54 AM,50.0,27.0,41,29.89,10.0,SSW,24.2,34.5,N/A,,Clear,210,2012-10-11 07:54:00
3:54 AM,50.0,28.0,43,29.88,10.0,SSW,27.6,35.7,N/A,,Clear,210,2012-10-11 08:54:00
4:54 AM,48.9,28.9,46,29.93,10.0,WSW,11.5,-,N/A,,Clear,240,2012-10-11 09:54:00
5:54 AM,51.1,28.9,43,29.94,10.0,WSW,13.8,-,N/A,,Clear,240,2012-10-11 10:54:00
6:54 AM,51.1,28.9,43,29.94,10.0,WSW,15.0,25.3,N/A,,Clear,240,2012-10-11 11:54:00
7:54 AM,51.1,30.0,44,29.98,10.0,West,13.8,20.7,N/A,,Clear,260,2012-10-11 12:54:00
8:54 AM,51.1,30.9,46,30.02,10.0,NW,15.0,20.7,N/A,,Scattered Clouds,320,2012-10-11 13:54:00
9:54 AM,46.0,32.0,58,30.08,10.0,NNW,18.4,24.2,N/A,,Mostly Cloudy,340,2012-10-11 14:54:00
10:54 AM,46.9,33.1,59,30.11,10.0,North,18.4,-,N/A,,Partly Cloudy,360,2012-10-11 15:54:00
11:54 AM,48.9,32.0,52,30.15,10.0,North,17.3,-,N/A,,Clear,350,2012-10-11 16:54:00
12:54 PM,48.9,25.0,39,30.17,10.0,NNW,18.4,-,N/A,,Mostly Cloudy,340,2012-10-11 17:54:00
1:54 PM,48.9,27.0,43,30.17,10.0,North,10.4,-,N/A,,Scattered Clouds,350,2012-10-11 18:54:00
2:54 PM,51.1,25.0,36,30.17,10.0,NNW,16.1,-,N/A,,Partly Cloudy,330,2012-10-11 19:54:00
3:54 PM,50.0,25.0,38,30.19,10.0,North,17.3,-,N/A,,Mostly Cloudy,350,2012-10-11 20:54:00
4:54 PM,48.2,19.4,32,30.20,10.0,North,15.0,20.7,N/A,,Overcast,350,2012-10-11 21:54:00
5:54 PM,48.9,19.0,31,30.23,10.0,NNW,8.1,-,N/A,,Scattered Clouds,330,2012-10-11 22:54:00
6:54 PM,45.0,16.0,31,30.26,10.0,NNW,10.4,-,N/A,,Clear,330,2012-10-11 23:54:00
7:54 PM,44.6,17.6,34,30.25,10.0,NNW,8.1,-,N/A,,Clear,340,2012-10-12 00:54:00
8:54 PM,43.0,16.0,34,30.32,10.0,North,11.5,-,N/A,,Clear,360,2012-10-12 01:54:00
9:54 PM,37.0,17.1,44,30.35,10.0,North,6.9,-,N/A,,Clear,350,2012-10-12 02:54:00
10:54 PM,36.0,16.0,44,30.38,10.0,North,5.8,-,N/A,,Clear,350,2012-10-12 03:54:00